AAL2733 KPHX-KLAX

Flight info

Callsign AAL2733
Flight time 1h 3m
Altitude 32000
Route KEENS3 WLVRN ESTWD HLYWD1
Aircraft B38M/M-SDE1FGHILORVWXY/HB1

Departure

Time 2026-04-26 12:54
Airport Phoenix Sky Harbor International Airport (KPHX)

Arrival

Time 2026-04-26 13:58
Airport Los Angeles International Airport (KLAX)
Time Latitude Longitude Altitude Speed Heading
2026-04-26 12:06 33.43721 -111.99984 1126 ft 0 kts 89°
2026-04-26 12:42 33.43721 -111.99993 1126 ft 4 kts 83°
2026-04-26 12:42 33.43712 -112.00020 1124 ft 4 kts 37°
2026-04-26 12:42 33.43688 -112.00030 1121 ft 4 kts
2026-04-26 12:42 33.43681 -112.00030 1119 ft 1 kts 359°
2026-04-26 12:47 33.43688 -112.00030 1121 ft 3 kts 359°
2026-04-26 12:47 33.43725 -112.00030 1116 ft 8 kts 359°
2026-04-26 12:47 33.43806 -112.00032 1121 ft 15 kts 360°
2026-04-26 12:47 33.43894 -112.00055 1125 ft 16 kts 305°
2026-04-26 12:48 33.43903 -112.00208 1126 ft 22 kts 270°
2026-04-26 12:48 33.43897 -112.00350 1126 ft 13 kts 244°
2026-04-26 12:48 33.43799 -112.00379 1121 ft 18 kts 181°
2026-04-26 12:48 33.43649 -112.00378 1122 ft 25 kts 180°
2026-04-26 12:49 33.43481 -112.00379 1123 ft 21 kts 180°
2026-04-26 12:49 33.43335 -112.00379 1120 ft 18 kts 180°
2026-04-26 12:49 33.43283 -112.00293 1127 ft 16 kts 92°
2026-04-26 12:49 33.43285 -112.00149 1120 ft 19 kts 89°
2026-04-26 12:50 33.43284 -111.99976 1120 ft 23 kts 90°
2026-04-26 12:50 33.43284 -111.99772 1120 ft 26 kts 90°
2026-04-26 12:50 33.43283 -111.99539 1126 ft 30 kts 89°
2026-04-26 12:50 33.43275 -111.99365 1124 ft 14 kts 124°
2026-04-26 12:51 33.43199 -111.99344 1121 ft 0 kts 179°
2026-04-26 12:51 33.43195 -111.99344 1121 ft 2 kts 179°
2026-04-26 12:52 33.43164 -111.99344 1121 ft 7 kts 182°
2026-04-26 12:52 33.43117 -111.99348 1123 ft 3 kts 202°
2026-04-26 12:52 33.43104 -111.99379 1126 ft 7 kts 264°
2026-04-26 12:52 33.43103 -111.99388 1126 ft 0 kts 270°
2026-04-26 12:53 33.43103 -111.99445 1126 ft 32 kts 269°
2026-04-26 12:53 33.43104 -111.99996 1126 ft 98 kts 270°
2026-04-26 12:54 33.43106 -112.01037 1139 ft 148 kts 270°
2026-04-26 12:54 33.43112 -112.02344 1574 ft 158 kts 270°
2026-04-26 12:54 33.43094 -112.03704 2046 ft 173 kts 268°
2026-04-26 12:54 33.43062 -112.05192 2610 ft 179 kts 266°
2026-04-26 12:55 33.42993 -112.06686 3239 ft 186 kts 264°
2026-04-26 12:55 33.42779 -112.08245 3822 ft 196 kts 251°
2026-04-26 12:55 33.42220 -112.09785 4406 ft 209 kts 247°
2026-04-26 12:55 33.41630 -112.11453 4936 ft 224 kts 248°
2026-04-26 12:56 33.41041 -112.13203 5722 ft 228 kts 248°
2026-04-26 12:56 33.40439 -112.14984 6461 ft 235 kts 247°
2026-04-26 12:56 33.39853 -112.16814 7291 ft 234 kts 251°
2026-04-26 12:56 33.39337 -112.18699 7816 ft 248 kts 252°
2026-04-26 12:57 33.39252 -112.20782 7904 ft 259 kts 276°
2026-04-26 12:57 33.39568 -112.22944 8437 ft 265 kts 275°
2026-04-26 12:57 33.39787 -112.24513 9114 ft 264 kts 275°
2026-04-26 12:58 33.40393 -112.28709 10464 ft 276 kts 275°
2026-04-26 12:58 33.40736 -112.31043 10826 ft 293 kts 275°
2026-04-26 12:58 33.41100 -112.33505 11315 ft 306 kts 275°
2026-04-26 12:58 33.41473 -112.36022 12047 ft 309 kts 275°
2026-04-26 12:59 33.41850 -112.38574 12834 ft 312 kts 274°
2026-04-26 12:59 33.42231 -112.41149 13657 ft 315 kts 274°
2026-04-26 12:59 33.42614 -112.43741 14395 ft 317 kts 274°
2026-04-26 12:59 33.42996 -112.46339 15251 ft 316 kts 274°
2026-04-26 13:00 33.43383 -112.48962 16110 ft 316 kts 274°
2026-04-26 13:00 33.43759 -112.51523 16923 ft 316 kts 273°
2026-04-26 13:00 33.44143 -112.54144 17734 ft 316 kts 273°
2026-04-26 13:00 33.44519 -112.56708 18453 ft 317 kts 272°
2026-04-26 13:01 33.44776 -112.58463 18883 ft 318 kts 273°
2026-04-26 13:01 33.45013 -112.61084 19486 ft 314 kts 264°
2026-04-26 13:01 33.45008 -112.63713 20058 ft 318 kts 265°
2026-04-26 13:01 33.45039 -112.66373 20679 ft 320 kts 265°
2026-04-26 13:02 33.45080 -112.69040 21281 ft 322 kts 265°
2026-04-26 13:02 33.45129 -112.71723 21872 ft 324 kts 265°
2026-04-26 13:02 33.45181 -112.74430 22468 ft 326 kts 265°
2026-04-26 13:02 33.45236 -112.77148 23037 ft 328 kts 265°
2026-04-26 13:03 33.45451 -112.79894 23564 ft 339 kts 276°
2026-04-26 13:03 33.46280 -112.82571 24164 ft 344 kts 281°
2026-04-26 13:03 33.47170 -112.85243 24614 ft 347 kts 282°
2026-04-26 13:03 33.48081 -112.87924 25069 ft 349 kts 282°
2026-04-26 13:04 33.49009 -112.90615 25530 ft 350 kts 282°
2026-04-26 13:04 33.49946 -112.93310 25972 ft 352 kts 282°
2026-04-26 13:04 33.50892 -112.96023 26418 ft 354 kts 282°
2026-04-26 13:04 33.51856 -112.98783 26850 ft 355 kts 282°
2026-04-26 13:05 33.52802 -113.01491 27273 ft 357 kts 282°
2026-04-26 13:05 33.53773 -113.04276 27691 ft 359 kts 282°
2026-04-26 13:05 33.54725 -113.07006 28062 ft 361 kts 282°
2026-04-26 13:05 33.55707 -113.09822 28472 ft 361 kts 282°
2026-04-26 13:06 33.56674 -113.12602 28960 ft 361 kts 282°
2026-04-26 13:06 33.57639 -113.15376 29501 ft 359 kts 282°
2026-04-26 13:06 33.58593 -113.18123 30071 ft 356 kts 282°
2026-04-26 13:06 33.59542 -113.20855 30551 ft 354 kts 282°
2026-04-26 13:07 33.60485 -113.23576 30997 ft 352 kts 282°
2026-04-26 13:07 33.61423 -113.26283 31442 ft 350 kts 282°
2026-04-26 13:07 33.62357 -113.28980 31798 ft 351 kts 282°
2026-04-26 13:07 33.63291 -113.31678 31881 ft 348 kts 281°
2026-04-26 13:08 33.65137 -113.37021 31904 ft 346 kts 281°
2026-04-26 13:08 33.66971 -113.42340 31923 ft 345 kts 281°
2026-04-26 13:09 33.68804 -113.47661 31933 ft 345 kts 281°
2026-04-26 13:09 33.70634 -113.52984 31939 ft 344 kts 281°
2026-04-26 13:10 33.72460 -113.58302 31926 ft 344 kts 281°
2026-04-26 13:10 33.74281 -113.63617 31920 ft 344 kts 281°
2026-04-26 13:11 33.76100 -113.68935 31891 ft 345 kts 281°
2026-04-26 13:11 33.77924 -113.74273 31878 ft 345 kts 281°
2026-04-26 13:12 33.79744 -113.79610 31861 ft 345 kts 281°
2026-04-26 13:12 33.81566 -113.84962 31837 ft 346 kts 281°
2026-04-26 13:13 33.83397 -113.90344 31806 ft 346 kts 281°
2026-04-26 13:13 33.85218 -113.95710 31810 ft 347 kts 281°
2026-04-26 13:14 33.87041 -114.01086 31817 ft 347 kts 281°
2026-04-26 13:14 33.88860 -114.06464 31811 ft 347 kts 282°
2026-04-26 13:15 33.90596 -114.11875 31804 ft 339 kts 274°
2026-04-26 13:15 33.91535 -114.17398 31806 ft 338 kts 274°
2026-04-26 13:16 33.92485 -114.22937 31811 ft 337 kts 273°
2026-04-26 13:16 33.93426 -114.28477 31807 ft 338 kts 273°
2026-04-26 13:17 33.94831 -114.36792 31812 ft 338 kts 273°
2026-04-26 13:18 33.96232 -114.45123 31802 ft 338 kts 273°
2026-04-26 13:19 33.97627 -114.53448 31800 ft 338 kts 273°
2026-04-26 13:19 33.98553 -114.58995 31806 ft 338 kts 274°
2026-04-26 13:20 33.99477 -114.64550 31803 ft 338 kts 274°
2026-04-26 13:20 34.00406 -114.70144 31805 ft 339 kts 274°
2026-04-26 13:21 34.01329 -114.75724 31808 ft 340 kts 274°
2026-04-26 13:21 34.02253 -114.81323 31808 ft 341 kts 274°
2026-04-26 13:22 34.03175 -114.86931 31810 ft 341 kts 274°
2026-04-26 13:22 34.04097 -114.92555 31807 ft 342 kts 274°
2026-04-26 13:23 34.05021 -114.98198 31818 ft 344 kts 274°
2026-04-26 13:23 34.05944 -115.03856 31806 ft 344 kts 274°
2026-04-26 13:24 34.06869 -115.09531 31808 ft 345 kts 274°
2026-04-26 13:24 34.07793 -115.15223 31809 ft 346 kts 274°
2026-04-26 13:25 34.08717 -115.20928 31814 ft 347 kts 274°
2026-04-26 13:25 34.09642 -115.26654 31807 ft 348 kts 274°
2026-04-26 13:26 34.10566 -115.32393 31810 ft 349 kts 274°
2026-04-26 13:26 34.11489 -115.38143 31809 ft 350 kts 274°
2026-04-26 13:27 34.12411 -115.43908 31811 ft 350 kts 274°
2026-04-26 13:27 34.13339 -115.49729 31813 ft 352 kts 274°
2026-04-26 13:28 34.14263 -115.55537 31814 ft 353 kts 274°
2026-04-26 13:28 34.15186 -115.61362 31822 ft 354 kts 274°
2026-04-26 13:29 34.16108 -115.67201 31812 ft 354 kts 274°
2026-04-26 13:29 34.16260 -115.69141 31800 ft 347 kts 263°
2026-04-26 13:29 34.15934 -115.72840 31810 ft 346 kts 261°
2026-04-26 13:30 34.15436 -115.78631 31825 ft 347 kts 261°
2026-04-26 13:30 34.14891 -115.84428 31844 ft 348 kts 260°
2026-04-26 13:31 34.14329 -115.90238 31853 ft 349 kts 260°
2026-04-26 13:31 34.13761 -115.96063 31871 ft 350 kts 260°
2026-04-26 13:32 34.13190 -116.01909 31885 ft 351 kts 260°
2026-04-26 13:32 34.12617 -116.07761 31887 ft 352 kts 260°
2026-04-26 13:33 34.12040 -116.13621 31887 ft 353 kts 260°
2026-04-26 13:33 34.11464 -116.19504 31888 ft 353 kts 260°
2026-04-26 13:34 34.10873 -116.25398 31876 ft 354 kts 261°
2026-04-26 13:34 34.10378 -116.30274 31775 ft 341 kts 260°
2026-04-26 13:34 34.10178 -116.32143 31487 ft 338 kts 260°
2026-04-26 13:35 34.09782 -116.35866 30949 ft 332 kts 260°
2026-04-26 13:35 34.09489 -116.38615 30542 ft 328 kts 260°
2026-04-26 13:35 34.09199 -116.41330 30121 ft 325 kts 260°
2026-04-26 13:35 34.08911 -116.44025 29687 ft 322 kts 260°
2026-04-26 13:36 34.08625 -116.46695 29239 ft 319 kts 260°
2026-04-26 13:36 34.08341 -116.49334 28831 ft 316 kts 260°
2026-04-26 13:36 34.08060 -116.51953 28438 ft 316 kts 261°
2026-04-26 13:36 34.07776 -116.54582 28046 ft 319 kts 261°
2026-04-26 13:37 34.07483 -116.57292 27603 ft 334 kts 261°
2026-04-26 13:37 34.07210 -116.60136 27129 ft 347 kts 262°
2026-04-26 13:37 34.06943 -116.63047 26751 ft 351 kts 262°
2026-04-26 13:37 34.06671 -116.65982 26349 ft 354 kts 262°
2026-04-26 13:38 34.06394 -116.68946 25929 ft 354 kts 262°
2026-04-26 13:38 34.06119 -116.71886 25491 ft 353 kts 262°
2026-04-26 13:38 34.05842 -116.74829 25056 ft 351 kts 263°
2026-04-26 13:38 34.05566 -116.77753 24646 ft 351 kts 263°
2026-04-26 13:39 34.05291 -116.80666 24218 ft 349 kts 263°
2026-04-26 13:39 34.05015 -116.83575 23796 ft 348 kts 263°
2026-04-26 13:39 34.04741 -116.86458 23348 ft 347 kts 263°
2026-04-26 13:39 34.04431 -116.89331 22850 ft 344 kts 261°
2026-04-26 13:40 34.04062 -116.92173 22386 ft 342 kts 261°
2026-04-26 13:40 34.03701 -116.94987 21984 ft 338 kts 261°
2026-04-26 13:40 34.03345 -116.97790 21588 ft 340 kts 261°
2026-04-26 13:40 34.02988 -117.00602 21177 ft 338 kts 261°
2026-04-26 13:41 34.02640 -117.03405 20750 ft 337 kts 262°
2026-04-26 13:41 34.02311 -117.06196 20290 ft 336 kts 262°
2026-04-26 13:41 34.01982 -117.08973 19889 ft 333 kts 262°
2026-04-26 13:41 34.01649 -117.11762 19482 ft 331 kts 262°
2026-04-26 13:42 34.01323 -117.14495 19077 ft 329 kts 262°
2026-04-26 13:42 34.00998 -117.17215 18677 ft 327 kts 262°
2026-04-26 13:42 34.00673 -117.19917 18272 ft 325 kts 262°
2026-04-26 13:42 34.00350 -117.22610 17812 ft 323 kts 262°
2026-04-26 13:43 34.00029 -117.25289 17333 ft 322 kts 262°
2026-04-26 13:43 33.99711 -117.27943 16949 ft 320 kts 262°
2026-04-26 13:43 33.99393 -117.30601 16548 ft 320 kts 262°
2026-04-26 13:43 33.99083 -117.33253 16130 ft 319 kts 262°
2026-04-26 13:44 33.98773 -117.35887 15757 ft 316 kts 262°
2026-04-26 13:44 33.98466 -117.38497 15374 ft 313 kts 262°
2026-04-26 13:44 33.98160 -117.41088 15018 ft 310 kts 262°
2026-04-26 13:44 33.97858 -117.43642 14652 ft 307 kts 262°
2026-04-26 13:45 33.97557 -117.46186 14287 ft 305 kts 262°
2026-04-26 13:45 33.97334 -117.48716 13920 ft 303 kts 271°
2026-04-26 13:45 33.97693 -117.51204 13557 ft 301 kts 280°
2026-04-26 13:45 33.98115 -117.53661 13187 ft 297 kts 279°
2026-04-26 13:46 33.98535 -117.56083 12834 ft 294 kts 279°
2026-04-26 13:46 33.98956 -117.58480 12476 ft 291 kts 279°
2026-04-26 13:46 33.99374 -117.60855 12131 ft 288 kts 280°
2026-04-26 13:46 33.99790 -117.63209 11773 ft 287 kts 280°
2026-04-26 13:47 34.00201 -117.65540 11421 ft 282 kts 280°
2026-04-26 13:47 34.00583 -117.67832 11063 ft 276 kts 275°
2026-04-26 13:47 34.00489 -117.70099 10689 ft 269 kts 263°
2026-04-26 13:47 34.00282 -117.72315 10367 ft 263 kts 263°
2026-04-26 13:48 34.00079 -117.74477 10053 ft 256 kts 263°
2026-04-26 13:48 33.99877 -117.76587 9709 ft 252 kts 263°
2026-04-26 13:48 33.99676 -117.78658 9353 ft 247 kts 263°
2026-04-26 13:48 33.99475 -117.80706 9043 ft 246 kts 263°
2026-04-26 13:49 33.99276 -117.82755 8708 ft 247 kts 263°
2026-04-26 13:49 33.99077 -117.84806 8386 ft 246 kts 263°
2026-04-26 13:49 33.98878 -117.86857 8086 ft 246 kts 263°
2026-04-26 13:49 33.98675 -117.88939 7781 ft 247 kts 263°
2026-04-26 13:50 33.98473 -117.90999 7449 ft 247 kts 263°
2026-04-26 13:50 33.98274 -117.93027 7143 ft 246 kts 263°
2026-04-26 13:50 33.98071 -117.95091 6843 ft 245 kts 263°
2026-04-26 13:50 33.97870 -117.97130 6552 ft 244 kts 264°
2026-04-26 13:51 33.97669 -117.99157 6233 ft 243 kts 264°
2026-04-26 13:51 33.97472 -118.01158 5947 ft 237 kts 264°
2026-04-26 13:51 33.97279 -118.03105 5644 ft 232 kts 264°
2026-04-26 13:51 33.97088 -118.05019 5340 ft 227 kts 264°
2026-04-26 13:52 33.96906 -118.06848 5076 ft 221 kts 264°
2026-04-26 13:52 33.96727 -118.08653 4827 ft 215 kts 264°
2026-04-26 13:52 33.96550 -118.10426 4496 ft 212 kts 264°
2026-04-26 13:52 33.96376 -118.12173 4201 ft 208 kts 264°
2026-04-26 13:53 33.96205 -118.13889 3921 ft 204 kts 264°
2026-04-26 13:53 33.96036 -118.15575 3665 ft 199 kts 264°
2026-04-26 13:53 33.95873 -118.17196 3517 ft 192 kts 264°
2026-04-26 13:53 33.95714 -118.18768 3298 ft 186 kts 264°
2026-04-26 13:54 33.95560 -118.20306 3021 ft 183 kts 264°
2026-04-26 13:54 33.95410 -118.21811 2759 ft 179 kts 263°
2026-04-26 13:54 33.95263 -118.23273 2528 ft 175 kts 263°
2026-04-26 13:55 33.94974 -118.26112 2088 ft 165 kts 263°
2026-04-26 13:55 33.94884 -118.27004 1984 ft 162 kts 263°
2026-04-26 13:55 33.94566 -118.30119 1500 ft 150 kts 263°
2026-04-26 13:56 33.94445 -118.31308 1306 ft 139 kts 263°
2026-04-26 13:56 33.94329 -118.32455 1118 ft 137 kts 264°
2026-04-26 13:56 33.94215 -118.33590 921 ft 137 kts 263°
2026-04-26 13:56 33.94090 -118.34726 759 ft 137 kts 262°
2026-04-26 13:57 33.93972 -118.35901 550 ft 143 kts 264°
2026-04-26 13:57 33.93861 -118.37071 318 ft 135 kts 262°
2026-04-26 13:57 33.93738 -118.38185 170 ft 133 kts 263°
2026-04-26 13:57 33.93637 -118.39232 110 ft 114 kts 264°
2026-04-26 13:58 33.93563 -118.39976 113 ft 58 kts 262°
2026-04-26 13:58 33.93527 -118.40353 114 ft 37 kts 272°
2026-04-26 13:58 33.93572 -118.40572 109 ft 19 kts 292°
2026-04-26 13:58 33.93593 -118.40712 108 ft 18 kts 272°
2026-04-26 13:59 33.93601 -118.40836 107 ft 3 kts 288°
2026-04-26 13:59 33.93601 -118.40837 108 ft 0 kts 289°
2026-04-26 14:00 33.93628 -118.40878 109 ft 8 kts 326°
2026-04-26 14:00 33.93704 -118.40903 110 ft 16 kts 353°
2026-04-26 14:00 33.93763 -118.40911 106 ft 13 kts 353°
2026-04-26 14:01 33.93866 -118.40900 100 ft 10 kts 71°
2026-04-26 14:01 33.93898 -118.40818 101 ft 13 kts 34°
2026-04-26 14:01 33.93985 -118.40820 98 ft 11 kts 352°
2026-04-26 14:01 33.94057 -118.40829 97 ft 7 kts
2026-04-26 14:02 33.94090 -118.40794 98 ft 7 kts 66°
2026-04-26 14:02 33.94100 -118.40760 98 ft 4 kts 70°
2026-04-26 14:02 33.94104 -118.40746 97 ft 1 kts 70°
2026-04-26 14:02 33.94106 -118.40742 97 ft 0 kts 69°